Regional Weather Roundup
Issued by NWS State College, PA

Home | Current Version | Previous Version | Graphics & Text | Print | Product List | Glossary Off
Versions: 1 2 3 4 5 6 7 8 9 10 11 12 13 14 15 16 17 18 19 20 21 22 23 24 25 26 27 28 29 30 31 32 33 34 35 36 37 38 39 40 41 42 43 44 45 46 47 48 49 50

000
ASUS41 KCTP 220410
RWRCTP

REGIONAL WEATHER ROUNDUP
NATIONAL WEATHER SERVICE STATE COLLEGE PA
1100 PM EST TUE NOV 21 2017

Note: "fair" indicates few or no clouds below 12,000 feet with no
significant weather and/or obstructions to visibility.

* = STATION THAT DOES NOT REPORT PRECIPITATION /E.G. RAIN...SNOW...ETC/
    THUNDER OR FOG.

PAZ002>004-007>009-013>016-020>023-029>032-220500-
WESTERN PENNSYLVANIA

CITY           SKY/WX    TMP DP  RH WIND       PRES   REMARKS
ERIE           LGT RAIN  40  37  89 NW13      29.94R
MEADVILLE      NOT AVBL
FRANKLIN*      CLOUDY    46  30  53 W9        29.91R
NEW CASTLE     MOCLDY    47  31  53 W6        29.94R
BEAVER COUNTY  NOT AVBL
BUTLER*        MOCLDY    48  30  49 W9        29.92S
PITTSBURGH INT CLOUDY    49  30  48 W7        29.93R
PITTSBURGH     CLOUDY    50  28  42 SW8       29.92S
INDIANA*       CLOUDY    46  32  57 W6        29.96S
LATROBE        CLOUDY    41  36  81 CALM      29.94S
WASHINGTON CO* MOCLDY    46  31  55 SW6       29.96S
$$

PAZ004>006-010>012-017>019-024>028-033>037-041-042-045-046-049>053-220500-
CENTRAL PENNSYLVANIA

CITY           SKY/WX    TMP DP  RH WIND       PRES   REMARKS
BRADFORD       CLOUDY    45  28  51 VRB6      29.88S
DUBOIS         CLOUDY    44  27  51 SW6       29.90S
CLEARFIELD     CLOUDY    37  29  72 CALM      29.92S
JOHNSTOWN      CLOUDY    47  28  47 SW6       29.92F
ALTOONA        MOCLDY    45  26  47 CALM      29.94F
STATE COLLEGE  CLOUDY    44  27  51 CALM      29.93S
WILLIAMSPORT   CLEAR     38  29  70 NW5       29.94F
SELINSGROVE    PTCLDY    34  30  85 CALM      29.97F
FT INDIANTOWN  CLEAR     34  32  94 CALM      29.99F
CAPITAL CITY   CLEAR     42  33  70 CALM      29.98F
HARRISBURG     CLOUDY    37  33  85 CALM      29.97F
YORK           CLOUDY    52  43  71 S6        29.98F
$$

PAZ038>040-043-044-047-048-054-055-060>062-067>071-220500-
EASTERN PENNSYLVANIA

CITY           SKY/WX    TMP DP  RH WIND       PRES   REMARKS
SCRANTON       CLEAR     47  34  60 CALM      29.97F
MOUNT POCONO   CLOUDY    41  37  86 SW7       29.97F
ALLENTOWN      CLOUDY    36  30  79 CALM      30.01F
QUAKERTOWN*    CLOUDY    39  36  87 S6        30.02F
READING        CLOUDY    43  40  89 CALM      29.99F
LANCASTER      CLOUDY    49  42  77 S3        29.99F
COATESVILLE    CLOUDY    50  43  76 VRB6      30.02F
POTTSTOWN      CLOUDY    48  41  76 CALM      30.02F
BLUE BELL      CLOUDY    50  41  71 SW9       30.03F
DOYLESTOWN     CLOUDY    49  39  68 S5        30.01F
WILLOW GROVE   NOT AVBL
NORTH PHILA    CLOUDY    56  42  59 SW7       30.04F
PHILADELPHIA   CLOUDY    53  41  63 SW9       30.03F
$$




USA.gov is the U.S. government's official web portal to all federal, state and local government web resources and services.